Location: Newark
(40.9833°N, 0.0333°W)
Time: 13:09:41
(UTC+00:00)

Transit 2A - All Passes

Search period start: 30 October 2020 00:00
Search period end: 09 November 2020 00:00
Orbit: 593 x 966 km, 66.7° (Epoch: 29 October)

Date Brightness Start Highest point End Pass type
(mag) Time Alt. Az. Time Alt. Az. Time Alt. Az.
30 Oct - 00:25:38 10° SSW 00:32:00 83° ESE 00:38:19 10° NNE night (unlit)
30 Oct - 02:11:09 10° W 02:15:59 22° NW 02:20:44 10° N visible
30 Oct - 07:32:21 10° N 07:35:02 13° NE 07:37:35 10° ENE daylight
30 Oct - 09:13:58 10° NNW 09:19:31 65° ENE 09:24:27 10° SE daylight
30 Oct - 10:58:52 10° WNW 11:01:56 16° WSW 11:04:50 10° SW daylight
30 Oct - 23:51:39 10° SSW 23:57:52 61° ESE 00:04:05 10° NE night (unlit)
31 Oct - 01:36:07 10° WSW 01:41:33 29° NW 01:46:52 10° NNE visible
31 Oct - 06:59:46 10° NNE 07:00:23 10° NNE 07:01:01 10° NE daylight
31 Oct - 08:39:54 10° NNW 08:45:15 45° NE 08:50:03 10° SE daylight
31 Oct - 10:23:52 10° NW 10:28:04 24° WSW 10:31:56 10° SSW daylight
31 Oct - 23:17:53 10° S 23:23:49 43° ESE 23:29:44 10° NE night (unlit)
01 Nov - 01:01:17 10° WSW 01:07:09 37° NW 01:12:56 10° NNE visible
01 Nov - 08:05:55 10° NNW 08:10:55 32° NE 08:15:27 10° ESE daylight
01 Nov - 09:49:14 10° NW 09:54:08 35° WSW 09:58:33 10° S daylight
01 Nov - 22:44:22 10° SSE 22:49:48 31° ESE 22:55:13 10° NE night (unlit)
02 Nov - 00:26:40 10° SW 00:32:50 50° NW 00:38:55 10° NNE night (unlit)
02 Nov - 02:14:57 10° WNW 02:17:34 13° NW 02:20:08 10° N visible
02 Nov - 07:32:01 10° N 07:36:31 24° NE 07:40:37 10° E daylight
02 Nov - 09:14:49 10° NW 09:20:07 53° WSW 09:24:51 10° S daylight
02 Nov - 22:11:12 10° SSE 22:15:51 22° ESE 22:20:29 10° ENE night (unlit)
02 Nov - 23:52:14 10° SW 23:58:36 68° WNW 00:04:51 10° NNE night (unlit)
03 Nov - 01:39:10 10° WNW 01:42:58 16° NW 01:46:42 10° N visible
03 Nov - 06:58:14 10° N 07:02:01 18° NE 07:05:33 10° E daylight
03 Nov - 08:40:33 10° NNW 08:46:02 80° WSW 08:50:54 10° SSE daylight
03 Nov - 21:38:37 10° SE 21:41:57 15° ESE 21:45:17 10° ENE night (unlit)
03 Nov - 23:18:01 10° SSW 23:24:24 88° ESE 23:30:42 10° NNE night (unlit)
04 Nov - 01:03:47 10° W 01:08:26 21° NW 01:13:00 10° N night (unlit)
04 Nov - 06:24:40 10° N 06:27:28 14° NE 06:30:08 10° ENE daylight
04 Nov - 08:06:22 10° NNW 08:11:52 70° ENE 08:16:45 10° SE daylight
04 Nov - 09:51:35 10° WNW 09:54:12 14° WSW 09:56:43 10° SW daylight
04 Nov - 22:43:59 10° SSW 22:50:15 65° ESE 22:56:29 10° NE night (unlit)
05 Nov - 00:28:40 10° WSW 00:33:58 27° NW 00:39:10 10° N night (unlit)
05 Nov - 05:51:47 10° NNE 05:52:51 10° NNE 05:53:53 10° NE visible
05 Nov - 07:32:18 10° NNW 07:37:37 48° NE 07:42:23 10° SE daylight
05 Nov - 09:16:25 10° WNW 09:20:21 21° WSW 09:24:00 10° SSW daylight
05 Nov - 22:10:10 10° S 22:16:11 46° ESE 22:22:09 10° NE night (unlit)
05 Nov - 23:53:49 10° WSW 23:59:35 35° NW 00:05:15 10° NNE night (unlit)
06 Nov - 06:58:17 10° NNW 07:03:18 34° NE 07:07:50 10° ESE daylight
06 Nov - 08:41:43 10° NW 08:46:25 32° WSW 08:50:41 10° S daylight
06 Nov - 21:36:36 10° S 21:42:10 33° ESE 21:47:41 10° NE night (unlit)
06 Nov - 23:19:08 10° SW 23:25:16 47° NW 23:31:16 10° NNE night (unlit)
07 Nov - 01:07:50 10° NW 01:10:02 12° NNW 01:12:13 10° NNW night (unlit)
07 Nov - 06:24:22 10° N 06:28:54 25° NE 06:33:03 10° E daylight
07 Nov - 08:07:16 10° NW 08:12:25 49° WSW 08:17:03 10° S daylight
07 Nov - 21:03:21 10° SSE 21:08:11 23° ESE 21:13:00 10° ENE night (unlit)
07 Nov - 22:44:40 10° SW 22:51:00 64° WNW 22:57:12 10° NNE night (unlit)
08 Nov - 00:31:53 10° WNW 00:35:26 15° NW 00:38:54 10° N night (unlit)
08 Nov - 05:50:35 10° N 05:54:26 19° NE 05:58:01 10° E visible
08 Nov - 07:32:58 10° NNW 07:38:21 74° WSW 07:43:09 10° SSE daylight
08 Nov - 20:30:37 10° SE 20:34:17 16° ESE 20:37:55 10° ENE night (unlit)
08 Nov - 22:10:24 10° SSW 22:16:48 87° WNW 22:23:04 10° NNE night (unlit)
